| time (UTC) | temp F | wind direction | speed MPH | gust MPH | rain 1hr in | rain 24hr in | rain mn in | humidity % | barometer mb |
| 20260905234606 | 46 | 65 | 0.0 | 1.0 | 0.01 | 0.44 | 0.01 | 99 | 1007.2 |
| 20260905233058 | 45 | 65 | 0.0 | 1.0 | 0.01 | 0.44 | 0.01 | 99 | 1007.1 |
| 20260905231556 | 45 | 65 | 0.0 | 0.0 | 0.00 | 0.43 | 0.00 | 99 | 1006.9 |
| 20260905230057 | 45 | 65 | 0.0 | 1.0 | 0.00 | 0.43 | 0.00 | 99 | 1006.8 |
| 20260905224552 | 45 | 65 | 0.0 | 2.0 | 0.00 | 0.43 | 0.00 | 99 | 1006.7 |
| 20260905223049 | 44 | 65 | 0.0 | 2.0 | 0.00 | 0.43 | 0.00 | 98 | 1006.5 |
| 20260905221549 | 44 | 65 | 0.0 | 2.0 | 0.00 | 0.43 | 0.00 | 99 | 1006.2 |
| 20260905220044 | 44 | 65 | 0.0 | 2.0 | 0.00 | 0.43 | 0.43 | 98 | 1006.0 |
| 20260905214543 | 45 | 65 | 0.0 | 2.0 | 0.00 | 0.43 | 0.43 | 98 | 1005.8 |
| 20260905213045 | 45 | 65 | 0.0 | 2.0 | 0.00 | 0.43 | 0.43 | 98 | 1005.6 |
| 20260905211558 | 46 | 65 | 0.0 | 2.0 | 0.00 | 0.43 | 0.43 | 99 | 1005.4 |
| 20260905210044 | 46 | 65 | 0.0 | 2.0 | 0.00 | 0.43 | 0.43 | 98 | 1005.1 |
| 20260905204536 | 46 | 65 | 0.0 | 2.0 | 0.00 | 0.43 | 0.43 | 98 | 1004.8 |
| 20260905203030 | 46 | 65 | 0.0 | 2.0 | 0.00 | 0.43 | 0.43 | 98 | 1004.5 |
| 20260905201533 | 46 | 65 | 0.0 | 2.0 | 0.00 | 0.43 | 0.43 | 98 | 1004.3 |
| 20260905200032 | 47 | 65 | 0.0 | 2.0 | 0.00 | 0.43 | 0.43 | 98 | 1004.1 |
| 20260905194523 | 47 | 65 | 0.0 | 2.0 | 0.00 | 0.43 | 0.43 | 98 | 1003.8 |
| 20260905193021 | 47 | 65 | 0.0 | 2.0 | 0.00 | 0.43 | 0.43 | 98 | 1003.7 |
| 20260905191519 | 48 | 65 | 0.0 | 2.0 | 0.00 | 0.43 | 0.43 | 98 | 1003.4 |
| 20260905190018 | 49 | 65 | 0.0 | 2.0 | 0.00 | 0.43 | 0.43 | 98 | 1003.3 |
| 20260905184516 | 49 | 65 | 0.0 | 2.0 | 0.00 | 0.43 | 0.43 | 97 | 1003.2 |
| 20260905183022 | 50 | 65 | 0.0 | 2.0 | 0.00 | 0.43 | 0.43 | 97 | 1002.9 |
| 20260905181511 | 51 | 65 | 0.0 | 2.0 | 0.00 | 0.43 | 0.43 | 97 | 1002.7 |
| 20260905180010 | 52 | 65 | 0.0 | 2.0 | 0.00 | 0.43 | 0.43 | 97 | 1002.5 |
| 20260905174508 | 53 | 65 | 0.0 | 2.0 | 0.02 | 0.43 | 0.43 | 97 | 1002.3 |
| 20260905173009 | 53 | 65 | 0.0 | 2.0 | 0.06 | 0.43 | 0.43 | 97 | 1002.0 |
| 20260905171503 | 54 | 356 | 0.0 | 2.0 | 0.09 | 0.43 | 0.43 | 97 | 1001.8 |
| 20260905170004 | 53 | 5 | 0.0 | 1.0 | 0.09 | 0.43 | 0.43 | 97 | 1001.7 |
| 20260905164502 | 53 | 5 | 0.0 | 1.0 | 0.09 | 0.42 | 0.42 | 97 | 1001.6 |
| 20260905163001 | 53 | 5 | 0.0 | 1.0 | 0.08 | 0.37 | 0.37 | 96 | 1001.6 |
| 20260905161600 | 53 | 5 | 0.0 | 1.0 | 0.09 | 0.35 | 0.35 | 96 | 1001.5 |
| 20260905160059 | 52 | 5 | 0.0 | 1.0 | 0.13 | 0.35 | 0.34 | 95 | 1001.3 |
| 20260905154559 | 52 | 335 | 0.0 | 1.0 | 0.22 | 0.34 | 0.33 | 95 | 1001.0 |
| 20260905153054 | 52 | 335 | 0.0 | 0.0 | 0.28 | 0.30 | 0.28 | 94 | 1000.9 |
| 20260905151554 | 52 | 335 | 0.0 | 4.0 | 0.26 | 0.27 | 0.26 | 93 | 1000.8 |
| 20260905150052 | 53 | 340 | 1.0 | 3.0 | 0.21 | 0.26 | 0.21 | 89 | 1000.7 |
| 20260905144558 | 57 | 344 | 1.0 | 3.0 | 0.11 | 0.16 | 0.11 | 79 | 1000.5 |
| 20260905143051 | 60 | 120 | 1.0 | 5.0 | 0.00 | 0.05 | 0.00 | 75 | 1000.1 |
| 20260905141547 | 64 | 333 | 0.0 | 2.0 | 0.00 | 0.05 | 0.00 | 69 | 999.9 |
| 20260905140046 | 64 | 19 | 0.0 | 3.0 | 0.00 | 0.06 | 0.00 | 63 | 999.7 |
| 20260905134555 | 64 | 68 | 1.0 | 5.0 | 0.00 | 0.06 | 0.00 | 64 | 999.7 |
| 20260905133048 | 63 | 91 | 1.0 | 4.0 | 0.00 | 0.06 | 0.00 | 69 | 999.6 |
| 20260905131540 | 62 | 136 | 1.0 | 5.0 | 0.00 | 0.06 | 0.00 | 69 | 999.5 |
| 20260905130038 | 64 | 46 | 1.0 | 8.0 | 0.00 | 0.06 | 0.00 | 67 | 999.3 |
| 20260905124541 | 64 | 71 | 1.0 | 4.0 | 0.00 | 0.06 | 0.00 | 68 | 999.2 |
| 20260905123032 | 63 | 150 | 1.0 | 3.0 | 0.00 | 0.06 | 0.00 | 69 | 999.2 |
| 20260905121532 | 62 | 135 | 0.0 | 3.0 | 0.00 | 0.06 | 0.00 | 75 | 999.2 |
| 20260905120030 | 63 | 82 | 0.0 | 3.0 | 0.00 | 0.19 | 0.00 | 71 | 999.0 |
| 20260905114525 | 60 | 340 | 1.0 | 3.0 | 0.00 | 0.19 | 0.00 | 77 | 999.0 |
| 20260905113024 | 59 | 136 | 0.0 | 2.0 | 0.00 | 0.19 | 0.00 | 80 | 999.0 |
| 20260905111523 | 60 | 72 | 0.0 | 5.0 | 0.00 | 0.19 | 0.00 | 76 | 998.8 |
| 20260905110019 | 59 | 116 | 0.0 | 2.0 | 0.00 | 0.33 | 0.00 | 80 | 998.7 |
| 20260905104517 | 59 | 114 | 0.0 | 3.0 | 0.00 | 0.33 | 0.00 | 80 | 998.7 |
| 20260905103015 | 59 | 130 | 1.0 | 6.0 | 0.00 | 0.33 | 0.00 | 80 | 998.5 |
| 20260905101522 | 58 | 122 | 0.0 | 6.0 | 0.00 | 0.33 | 0.00 | 83 | 998.4 |
| 20260905100012 | 58 | 122 | 0.0 | 2.0 | 0.00 | 0.35 | 0.00 | 83 | 998.3 |
| 20260905094510 | 59 | 131 | 0.0 | 3.0 | 0.00 | 0.35 | 0.00 | 85 | 998.3 |
| 20260905093007 | 58 | 82 | 0.0 | 3.0 | 0.00 | 0.35 | 0.00 | 85 | 998.1 |
| 20260905091505 | 58 | 85 | 0.0 | 3.0 | 0.00 | 0.35 | 0.00 | 88 | 998.0 |
| 20260905090003 | 57 | 106 | 0.0 | 4.0 | 0.00 | 0.35 | 0.00 | 88 | 997.9 |
| 20260905084602 | 57 | 138 | 0.0 | 3.0 | 0.00 | 0.35 | 0.00 | 89 | 997.8 |
| 20260905083059 | 56 | 153 | 0.0 | 3.0 | 0.00 | 0.35 | 0.00 | 91 | 997.7 |
| 20260905081555 | 56 | 51 | 0.0 | 2.0 | 0.00 | 0.35 | 0.00 | 93 | 997.7 |
| 20260905074549 | 54 | 150 | 0.0 | 9.0 | 0.00 | 0.36 | 0.00 | 98 | 997.4 |
| 20260905073046 | 53 | 151 | 0.0 | 9.0 | 0.00 | 0.36 | 0.00 | 99 | 997.2 |
| 20260905071544 | 53 | 152 | 0.0 | 9.0 | 0.00 | 0.36 | 0.00 | 99 | 997.1 |
| 20260905070046 | 52 | 98 | 0.0 | 9.0 | 0.00 | 0.39 | 0.00 | 99 | 997.0 |
| 20260905064543 | 52 | 46 | 0.0 | 9.0 | 0.00 | 0.39 | 0.00 | 99 | 996.8 |
| 20260905063041 | 51 | 46 | 0.0 | 9.0 | 0.00 | 0.39 | 0.00 | 99 | 996.8 |
| 20260905061536 | 51 | 91 | 0.0 | 9.0 | 0.00 | 0.39 | 0.00 | 99 | 996.6 |
| 20260905060033 | 51 | 134 | 0.0 | 9.0 | 0.00 | 0.39 | 0.00 | 99 | 996.4 |
| 20260905054535 | 50 | 134 | 0.0 | 9.0 | 0.00 | 0.39 | 0.00 | 99 | 996.2 |
| 20260905053029 | 50 | 134 | 0.0 | 9.0 | 0.00 | 0.39 | 0.00 | 99 | 996.1 |
| 20260905051527 | 50 | 134 | 0.0 | 9.0 | 0.00 | 0.39 | 0.00 | 99 | 996.1 |
| 20260905050026 | 49 | 134 | 0.0 | 9.0 | 0.00 | 0.39 | 0.00 | 99 | 995.9 |
| 20260905044527 | 49 | 134 | 0.0 | 9.0 | 0.00 | 0.39 | 0.00 | 99 | 996.0 |
| 20260905043024 | 49 | 134 | 0.0 | 9.0 | 0.00 | 0.39 | 0.00 | 99 | 995.9 |
| 20260905041522 | 49 | 134 | 0.0 | 9.0 | 0.00 | 0.39 | 0.00 | 99 | 995.8 |
| 20260905040031 | 49 | 134 | 0.0 | 9.0 | 0.00 | 0.39 | 0.00 | 99 | 995.8 |
| 20260905034528 | 49 | 134 | 0.0 | 9.0 | 0.00 | 0.39 | 0.00 | 99 | 995.6 |
| 20260905033019 | 49 | 134 | 0.0 | 9.0 | 0.00 | 0.39 | 0.00 | 99 | 995.4 |
| 20260905031517 | 49 | 134 | 0.0 | 9.0 | 0.00 | 0.39 | 0.00 | 99 | 995.2 |
| 20260905030016 | 49 | 134 | 0.0 | 9.0 | 0.00 | 0.39 | 0.00 | 99 | 995.1 |
| 20260905024517 | 49 | 134 | 0.0 | 9.0 | 0.00 | 0.39 | 0.00 | 99 | 995.1 |
| 20260905023014 | 49 | 134 | 0.0 | 9.0 | 0.00 | 0.39 | 0.00 | 99 | 995.0 |
| 20260905021513 | 49 | 134 | 0.0 | 9.0 | 0.00 | 0.39 | 0.00 | 99 | 994.9 |
| 20260905020011 | 49 | 134 | 0.0 | 9.0 | 0.00 | 0.39 | 0.00 | 99 | 994.7 |
| 20260905014509 | 49 | 134 | 0.0 | 9.0 | 0.00 | 0.39 | 0.00 | 99 | 994.7 |
| 20260905013009 | 49 | 134 | 0.0 | 9.0 | 0.00 | 0.39 | 0.00 | 99 | 994.7 |
| 20260905011509 | 49 | 134 | 0.0 | 9.0 | 0.00 | 0.39 | 0.00 | 99 | 994.5 |
| 20260905010006 | 48 | 134 | 0.0 | 9.0 | 0.00 | 0.39 | 0.00 | 99 | 994.4 |
| 20260905004506 | 48 | 134 | 0.0 | 9.0 | 0.00 | 0.39 | 0.00 | 99 | 994.3 |
| 20260905003007 | 48 | 134 | 0.0 | 9.0 | 0.00 | 0.39 | 0.00 | 98 | 994.3 |
| 20260905001507 | 48 | 134 | 0.0 | 9.0 | 0.00 | 0.39 | 0.00 | 98 | 994.3 |
| 20260905000003 | 48 | 134 | 0.0 | 9.0 | 0.00 | 0.39 | 0.00 | 98 | 994.2 |